Track NAVSTAR 56 (USA 180) now! NAVSTAR 56 (USA 180) is classified as:
1 28474U 04045A 25341.84485361 -.00000082 00000-0 00000-0 0 9993 2 28474 55.2431 332.6027 0170668 309.0357 48.7901 2.00569143154587